User: anonymous   Login
Location: Caltech
(34.1382°N, 118.1253°W)
Time: 00:39:23
(UTC-07:00)
Language:

Gurwin Techsat 1B - Orbit

View from above orbital plane
View from above orbital plane
View from above satellite
View from above satellite

Ground track
Ground track

The orbit data is extracted from the following two-line orbital elements,

1 25397U 98043D   15145.12183082  .00000032  00000-0  32662-4 0  9999
2 25397 098.5180 096.2891 0002237 060.3747 005.3276 14.23545406876519
Epoch (UTC): 25 May 2015 02:55:26
Eccentricity: 0.0002237
inclination: 98.5180°
perigee height: 812 km
apogee height: 815 km
right ascension of ascending node: 96.2891°
argument of perigee: 60.3747°
revolutions per day: 14.23545406
mean anomaly at epoch: 5.3276°
orbit number at epoch: 87651

The dashed part of the orbit path shows where the satellite is in the earth's shadow,  

DLR